Time,TemperatureF,DewpointF,PressureIn,WindDirection,WindDirectionDegrees,WindSpeedMPH,WindSpeedGustMPH,Humidity,HourlyPrecipIn,Conditions,Clouds,dailyrainin,SoftwareType,DateUTC
2013-09-12 00:02:00,70.9,69.7,29.91,South,180,0.0,-999.0,96,-99.99,,,0.00,Acu-Link.com,2013-09-12 04:02:00,
2013-09-12 00:17:00,70.5,69.6,29.91,South,180,0.0,-999.0,97,-99.99,,,0.00,Acu-Link.com,2013-09-12 04:17:00,
2013-09-12 00:32:00,70.3,69.4,29.90,South,180,0.0,-999.0,97,-99.99,,,0.00,Acu-Link.com,2013-09-12 04:32:00,
2013-09-12 00:47:00,70.2,69.3,29.90,SSW,202,0.0,-999.0,97,-99.99,,,0.00,Acu-Link.com,2013-09-12 04:47:00,
2013-09-12 01:02:00,70.0,69.7,29.90,WNW,292,0.0,-999.0,99,-99.99,,,0.00,Acu-Link.com,2013-09-12 05:02:00,
2013-09-12 01:17:00,70.0,69.7,29.91,South,180,0.0,-999.0,99,-99.99,,,0.00,Acu-Link.com,2013-09-12 05:17:00,
2013-09-12 01:33:00,69.8,69.5,29.90,SSE,157,0.0,-999.0,99,-99.99,,,0.00,Acu-Link.com,2013-09-12 05:33:00,
2013-09-12 01:48:00,69.4,68.8,29.89,SSE,157,0.0,-999.0,98,-99.99,,,0.00,Acu-Link.com,2013-09-12 05:48:00,
2013-09-12 02:03:00,69.3,68.7,29.90,South,180,0.0,-999.0,98,-99.99,,,0.00,Acu-Link.com,2013-09-12 06:03:00,
2013-09-12 02:18:00,69.1,68.8,29.90,SSW,202,0.0,-999.0,99,-99.99,,,0.00,Acu-Link.com,2013-09-12 06:18:00,
2013-09-12 02:33:00,68.9,68.6,29.90,South,180,0.0,-999.0,99,-99.99,,,0.00,Acu-Link.com,2013-09-12 06:33:00,
2013-09-12 02:48:00,68.7,68.4,29.90,NW,315,0.0,-999.0,99,-99.99,,,0.00,Acu-Link.com,2013-09-12 06:48:00,
2013-09-12 03:03:00,68.7,68.4,29.90,NW,315,0.0,-999.0,99,-99.99,,,0.00,Acu-Link.com,2013-09-12 07:03:00,
2013-09-12 03:18:00,68.7,68.4,29.90,South,180,0.0,-999.0,99,-99.99,,,0.00,Acu-Link.com,2013-09-12 07:18:00,
2013-09-12 03:33:00,68.4,68.1,29.90,SSE,157,0.0,-999.0,99,-99.99,,,0.00,Acu-Link.com,2013-09-12 07:33:00,
2013-09-12 03:49:00,68.2,67.9,29.90,SSE,157,0.0,-999.0,99,-99.99,,,0.00,Acu-Link.com,2013-09-12 07:49:00,
2013-09-12 04:05:00,68.2,67.9,29.90,South,180,0.0,-999.0,99,-99.99,,,0.00,Acu-Link.com,2013-09-12 08:05:00,
2013-09-12 04:20:00,68.0,67.7,29.90,South,180,0.0,-999.0,99,-99.99,,,0.00,Acu-Link.com,2013-09-12 08:20:00,
2013-09-12 04:35:00,68.0,67.7,29.90,SSE,157,0.0,-999.0,99,-99.99,,,0.00,Acu-Link.com,2013-09-12 08:35:00,
2013-09-12 04:50:00,68.0,67.7,29.90,South,180,0.0,-999.0,99,-99.99,,,0.00,Acu-Link.com,2013-09-12 08:50:00,
2013-09-12 05:05:00,68.0,67.7,29.90,South,180,0.0,-999.0,99,-99.99,,,0.00,Acu-Link.com,2013-09-12 09:05:00,
2013-09-12 05:20:00,68.2,67.9,29.89,South,180,0.0,-999.0,99,-99.99,,,0.00,Acu-Link.com,2013-09-12 09:20:00,
2013-09-12 05:35:00,68.0,67.7,29.89,South,180,0.0,-999.0,99,-99.99,,,0.00,Acu-Link.com,2013-09-12 09:35:00,
2013-09-12 05:50:00,67.8,67.5,29.89,SSE,157,0.0,-999.0,99,-99.99,,,0.00,Acu-Link.com,2013-09-12 09:50:00,
2013-09-12 06:06:00,67.8,67.5,29.89,South,180,0.0,-999.0,99,-99.99,,,0.00,Acu-Link.com,2013-09-12 10:06:00,
2013-09-12 06:21:00,67.8,67.5,29.89,South,180,0.0,-999.0,99,-99.99,,,0.00,Acu-Link.com,2013-09-12 10:21:00,
2013-09-12 06:36:00,67.6,67.3,29.90,South,180,0.0,-999.0,99,-99.99,,,0.00,Acu-Link.com,2013-09-12 10:36:00,
2013-09-12 06:51:00,67.6,67.3,29.90,South,180,0.0,-999.0,99,-99.99,,,0.00,Acu-Link.com,2013-09-12 10:51:00,
2013-09-12 07:06:00,67.5,67.2,29.90,SSE,157,0.0,-999.0,99,-99.99,,,0.00,Acu-Link.com,2013-09-12 11:06:00,
2013-09-12 07:22:00,67.5,67.2,29.91,South,180,0.0,-999.0,99,-99.99,,,0.00,Acu-Link.com,2013-09-12 11:22:00,
2013-09-12 07:37:00,67.6,67.3,29.91,South,180,0.0,-999.0,99,-99.99,,,0.00,Acu-Link.com,2013-09-12 11:37:00,
2013-09-12 07:52:00,68.0,67.7,29.91,South,180,0.0,-999.0,99,-99.99,,,0.00,Acu-Link.com,2013-09-12 11:52:00,
2013-09-12 08:07:00,68.4,68.1,29.91,South,180,0.0,-999.0,99,-99.99,,,0.00,Acu-Link.com,2013-09-12 12:07:00,
2013-09-12 08:22:00,68.9,68.6,29.91,South,180,0.0,-999.0,99,-99.99,,,0.00,Acu-Link.com,2013-09-12 12:22:00,
2013-09-12 08:37:00,69.4,68.8,29.90,SSW,202,0.0,-999.0,98,-99.99,,,0.00,Acu-Link.com,2013-09-12 12:37:00,
2013-09-12 08:52:00,70.2,69.6,29.91,WNW,292,0.0,-999.0,98,-99.99,,,0.00,Acu-Link.com,2013-09-12 12:52:00,
2013-09-12 09:07:00,71.1,70.5,29.91,SSW,202,0.0,-999.0,98,-99.99,,,0.00,Acu-Link.com,2013-09-12 13:07:00,
2013-09-12 09:22:00,72.5,71.3,29.90,WSW,247,0.0,-999.0,96,-99.99,,,0.00,Acu-Link.com,2013-09-12 13:22:00,
2013-09-12 09:38:00,73.6,71.4,29.90,SSW,202,0.0,-999.0,93,-99.99,,,0.00,Acu-Link.com,2013-09-12 13:38:00,
2013-09-12 09:53:00,74.7,72.2,29.90,WNW,292,0.0,-999.0,92,-99.99,,,0.00,Acu-Link.com,2013-09-12 13:53:00,
2013-09-12 10:08:00,75.9,72.1,29.90,SW,225,0.0,-999.0,88,-99.99,,,0.00,Acu-Link.com,2013-09-12 14:08:00,
2013-09-12 10:23:00,77.2,72.3,29.89,South,180,0.0,-999.0,85,-99.99,,,0.00,Acu-Link.com,2013-09-12 14:23:00,
2013-09-12 10:38:00,77.9,72.3,29.89,NW,315,0.0,-999.0,83,-99.99,,,0.00,Acu-Link.com,2013-09-12 14:38:00,
2013-09-12 10:53:00,79.0,72.7,29.88,NE,45,0.0,-999.0,81,-99.99,,,0.00,Acu-Link.com,2013-09-12 14:53:00,
2013-09-12 11:09:00,79.7,72.6,29.88,South,180,0.0,-999.0,79,-99.99,,,0.00,Acu-Link.com,2013-09-12 15:09:00,
2013-09-12 11:24:00,80.4,72.5,29.88,NE,45,0.0,-999.0,77,-99.99,,,0.00,Acu-Link.com,2013-09-12 15:24:00,
2013-09-12 11:39:00,81.7,73.0,29.88,SSW,202,0.0,-999.0,75,-99.99,,,0.00,Acu-Link.com,2013-09-12 15:39:00,
2013-09-12 11:55:00,82.4,72.9,29.87,NNE,22,0.0,-999.0,73,-99.99,,,0.00,Acu-Link.com,2013-09-12 15:55:00,
2013-09-12 12:10:00,83.5,73.5,29.87,SSW,202,0.0,-999.0,72,-99.99,,,0.00,Acu-Link.com,2013-09-12 16:10:00,
2013-09-12 12:25:00,84.2,73.8,29.87,SSW,202,0.0,-999.0,71,-99.99,,,0.00,Acu-Link.com,2013-09-12 16:25:00,
2013-09-12 12:40:00,86.0,72.8,29.86,WNW,292,2.2,-999.0,65,-99.99,,,0.00,Acu-Link.com,2013-09-12 16:40:00,
2013-09-12 12:55:00,85.3,72.2,29.86,NW,315,0.0,-999.0,65,-99.99,,,0.00,Acu-Link.com,2013-09-12 16:55:00,
2013-09-12 13:10:00,85.6,73.4,29.85,North,0,0.0,-999.0,67,-99.99,,,0.00,Acu-Link.com,2013-09-12 17:10:00,
2013-09-12 13:25:00,90.0,72.7,29.84,WSW,247,0.0,-999.0,57,-99.99,,,0.00,Acu-Link.com,2013-09-12 17:25:00,
2013-09-12 13:41:00,86.0,71.9,29.84,NW,315,0.0,-999.0,63,-99.99,,,0.00,Acu-Link.com,2013-09-12 17:41:00,
2013-09-12 13:56:00,89.2,73.0,29.83,WNW,292,0.0,-999.0,59,-99.99,,,0.00,Acu-Link.com,2013-09-12 17:56:00,
2013-09-12 14:11:00,90.9,73.0,29.81,WNW,292,1.1,-999.0,56,-99.99,,,0.00,Acu-Link.com,2013-09-12 18:11:00,
2013-09-12 14:26:00,91.2,72.2,29.81,West,270,1.7,-999.0,54,-99.99,,,0.00,Acu-Link.com,2013-09-12 18:26:00,
2013-09-12 14:42:00,89.4,73.1,29.81,West,270,0.0,-999.0,59,-99.99,,,0.00,Acu-Link.com,2013-09-12 18:42:00,
2013-09-12 14:57:00,86.4,73.2,29.80,SSW,202,0.0,-999.0,65,-99.99,,,0.00,Acu-Link.com,2013-09-12 18:57:00,
2013-09-12 15:12:00,85.3,74.8,29.81,WNW,292,2.7,-999.0,71,-99.99,,,0.00,Acu-Link.com,2013-09-12 19:12:00,
2013-09-12 15:27:00,80.6,68.6,29.82,WNW,292,2.7,-999.0,67,-99.99,,,0.00,Acu-Link.com,2013-09-12 19:27:00,
2013-09-12 15:42:00,79.7,69.4,29.81,SSW,202,0.0,-999.0,71,-99.99,,,0.00,Acu-Link.com,2013-09-12 19:42:00,
2013-09-12 15:57:00,78.6,69.6,29.81,WNW,292,1.7,-999.0,74,-99.99,,,0.00,Acu-Link.com,2013-09-12 19:57:00,
2013-09-12 16:12:00,77.7,69.9,29.81,NNW,337,2.2,-999.0,77,-99.99,,,0.00,Acu-Link.com,2013-09-12 20:12:00,
2013-09-12 16:27:00,77.9,71.6,29.80,South,180,0.0,-999.0,81,-99.99,,,0.00,Acu-Link.com,2013-09-12 20:27:00,
2013-09-12 16:42:00,78.6,71.5,29.79,ESE,112,0.0,-999.0,79,-99.99,,,0.00,Acu-Link.com,2013-09-12 20:42:00,
2013-09-12 16:58:00,80.1,71.8,29.80,NW,315,0.0,-999.0,76,-99.99,,,0.00,Acu-Link.com,2013-09-12 20:58:00,
2013-09-12 17:13:00,80.8,72.5,29.78,SSW,202,0.0,-999.0,76,-99.99,,,0.00,Acu-Link.com,2013-09-12 21:13:00,
2013-09-12 17:28:00,81.5,71.2,29.78,SSE,157,0.0,-999.0,71,-99.99,,,0.00,Acu-Link.com,2013-09-12 21:28:00,
2013-09-12 17:43:00,81.3,70.6,29.78,WNW,292,0.0,-999.0,70,-99.99,,,0.00,Acu-Link.com,2013-09-12 21:43:00,
2013-09-12 17:58:00,79.5,70.9,29.78,SW,225,0.0,-999.0,75,-99.99,,,0.00,Acu-Link.com,2013-09-12 21:58:00,
2013-09-12 18:13:00,79.0,71.5,29.78,SSW,202,0.0,-999.0,78,-99.99,,,0.00,Acu-Link.com,2013-09-12 22:13:00,
2013-09-12 18:28:00,77.9,71.9,29.78,South,180,0.0,-999.0,82,-99.99,,,0.00,Acu-Link.com,2013-09-12 22:28:00,
2013-09-12 18:43:00,77.4,71.5,29.79,South,180,0.0,-999.0,82,-99.99,,,0.00,Acu-Link.com,2013-09-12 22:43:00,
2013-09-12 18:58:00,77.0,71.4,29.80,WNW,292,0.0,-999.0,83,-99.99,,,0.00,Acu-Link.com,2013-09-12 22:58:00,
2013-09-12 19:14:00,76.3,71.4,29.79,South,180,0.0,-999.0,85,-99.99,,,0.00,Acu-Link.com,2013-09-12 23:14:00,
2013-09-12 19:29:00,75.6,71.4,29.79,SSW,202,0.0,-999.0,87,-99.99,,,0.00,Acu-Link.com,2013-09-12 23:29:00,
2013-09-12 19:44:00,75.0,71.2,29.78,SSW,202,0.0,-999.0,88,-99.99,,,0.00,Acu-Link.com,2013-09-12 23:44:00,
2013-09-12 19:59:00,74.5,71.7,29.79,South,180,0.0,-999.0,91,-99.99,,,0.00,Acu-Link.com,2013-09-12 23:59:00,
2013-09-12 20:15:00,74.5,71.7,29.79,South,180,0.0,-999.0,91,-99.99,,,0.00,Acu-Link.com,2013-09-13 00:15:00,
2013-09-12 20:30:00,74.3,72.1,29.80,South,180,0.0,-999.0,93,-99.99,,,0.00,Acu-Link.com,2013-09-13 00:30:00,
2013-09-12 20:45:00,74.1,71.9,29.80,South,180,0.0,-999.0,93,-99.99,,,0.00,Acu-Link.com,2013-09-13 00:45:00,
2013-09-12 21:01:00,74.1,72.3,29.81,South,180,0.0,-999.0,94,-99.99,,,0.00,Acu-Link.com,2013-09-13 01:01:00,
2013-09-12 21:16:00,73.9,72.1,29.82,SSW,202,0.0,-999.0,94,-99.99,,,0.00,Acu-Link.com,2013-09-13 01:16:00,
2013-09-12 21:31:00,73.6,72.1,29.82,South,180,0.0,-999.0,95,-99.99,,,0.00,Acu-Link.com,2013-09-13 01:31:00,
2013-09-12 21:46:00,73.4,71.9,29.83,South,180,0.0,-999.0,95,-99.99,,,0.00,Acu-Link.com,2013-09-13 01:46:00,
2013-09-12 22:01:00,73.2,72.0,29.82,South,180,0.0,-999.0,96,-99.99,,,0.00,Acu-Link.com,2013-09-13 02:01:00,
2013-09-12 22:16:00,73.0,72.1,29.82,South,180,0.0,-999.0,97,-99.99,,,0.00,Acu-Link.com,2013-09-13 02:16:00,
2013-09-12 22:32:00,72.9,72.0,29.83,South,180,0.0,-999.0,97,-99.99,,,0.00,Acu-Link.com,2013-09-13 02:32:00,
2013-09-12 22:47:00,72.9,72.3,29.83,SSE,157,0.0,-999.0,98,-99.99,,,0.00,Acu-Link.com,2013-09-13 02:47:00,
2013-09-12 23:02:00,72.9,72.3,29.82,South,180,0.0,-999.0,98,-99.99,,,0.00,Acu-Link.com,2013-09-13 03:02:00,
2013-09-12 23:17:00,72.9,72.6,29.82,South,180,0.0,-999.0,99,-99.99,,,0.00,Acu-Link.com,2013-09-13 03:17:00,
2013-09-12 23:32:00,72.7,72.4,29.81,South,180,0.0,-999.0,99,-99.99,,,0.00,Acu-Link.com,2013-09-13 03:32:00,
2013-09-12 23:47:00,72.7,72.4,29.81,South,180,0.0,-999.0,99,-99.99,,,0.00,Acu-Link.com,2013-09-13 03:47:00,